TimeCST,TemperatureF,Dew PointF,Humidity,Sea Level PressureIn,VisibilityMPH,Wind Direction,Wind SpeedMPH,Gust SpeedMPH,PrecipitationIn,Events,Conditions,WindDirDegrees,DateUTC
12:52 AM,36.0,27.0,70,30.41,-9999.0,ESE,5.8,-,N/A,,Unknown,120,2013-01-10 06:52:00
1:52 AM,37.0,27.0,67,30.40,-9999.0,ESE,4.6,-,N/A,,Unknown,120,2013-01-10 07:52:00
2:52 AM,37.9,27.0,65,30.38,-9999.0,East,6.9,-,N/A,,Unknown,100,2013-01-10 08:52:00
3:52 AM,39.0,26.1,60,30.34,-9999.0,ESE,6.9,-,N/A,,Unknown,120,2013-01-10 09:52:00
4:52 AM,39.0,26.1,60,30.32,-9999.0,East,5.8,-,N/A,,Unknown,100,2013-01-10 10:52:00
5:52 AM,39.0,28.9,67,30.30,-9999.0,East,6.9,-,0.01,,Unknown,100,2013-01-10 11:52:00
6:52 AM,39.9,27.0,60,30.26,-9999.0,East,4.6,-,N/A,,Unknown,100,2013-01-10 12:52:00
7:52 AM,41.0,27.0,57,30.24,-9999.0,ESE,9.2,-,N/A,,Unknown,110,2013-01-10 13:52:00
8:52 AM,42.1,27.0,55,30.22,-9999.0,ESE,9.2,-,N/A,,Unknown,110,2013-01-10 14:52:00
9:52 AM,39.0,34.0,82,30.19,-9999.0,SE,6.9,-,N/A,,Unknown,130,2013-01-10 15:52:00
10:52 AM,37.9,36.0,93,30.13,-9999.0,ESE,10.4,-,0.03,,Unknown,110,2013-01-10 16:52:00
11:52 AM,39.0,-9999,N/A,30.06,-9999.0,ESE,10.4,17.3,0.02,,Unknown,110,2013-01-10 17:52:00
12:52 PM,39.0,39.0,100,30.01,-9999.0,ESE,9.2,-,0.04,,Unknown,110,2013-01-10 18:52:00
2:52 PM,39.9,39.9,100,29.95,-9999.0,ESE,8.1,-,0.02,,Unknown,120,2013-01-10 20:52:00
3:52 PM,41.0,41.0,100,29.93,-9999.0,ESE,5.8,-,N/A,,Unknown,120,2013-01-10 21:52:00
4:52 PM,41.0,41.0,100,29.92,-9999.0,ESE,4.6,-,N/A,,Unknown,120,2013-01-10 22:52:00
5:52 PM,42.1,42.1,100,29.90,-9999.0,East,4.6,-,0.07,,Unknown,90,2013-01-10 23:52:00
6:52 PM,42.1,42.1,100,29.88,-9999.0,ESE,5.8,-,N/A,,Unknown,110,2013-01-11 00:52:00
7:52 PM,43.0,43.0,100,29.85,-9999.0,SE,3.5,-,N/A,,Unknown,130,2013-01-11 01:52:00
8:52 PM,43.0,43.0,100,29.83,-9999.0,SE,3.5,-,N/A,,Unknown,140,2013-01-11 02:52:00
9:52 PM,43.0,43.0,100,29.79,-9999.0,SE,6.9,-,N/A,,Unknown,130,2013-01-11 03:52:00
10:52 PM,43.0,43.0,100,29.77,-9999.0,Calm,Calm,-,N/A,,Unknown,0,2013-01-11 04:52:00
11:52 PM,44.1,44.1,100,29.78,-9999.0,Calm,Calm,-,N/A,,Unknown,0,2013-01-11 05:52:00